When you browse on this site, cookies collect data to enhance your experience and personalize the content and advertising you see.
Visit our Privacy Policy to learn more. By continuing to use the site, you agree to this use of cookies and data.
  • In Hungary
  • List of Countries
  • For 7 days
  • Water Temperature
  • Satellite Maps
  • Weather Map
  • News
  • Weather Widgets
  • user-avatar
    Login

    Hourly Weather Durres

    Today, 10 December, Monday

    Time Temperature Precipitation Wind Pressure Humidity
    00:00 +9°C° 1.2 mm 7 mps 753 mmHg 81%
    01:00 +9°C° 0 mm 7 mps 753 mmHg 80%
    02:00 +9°C° 0.6 mm 7 mps 752 mmHg 84%
    03:00 +9°C° 0.6 mm 7 mps 752 mmHg 88%
    04:00 +8°C° 0.6 mm 7 mps 752 mmHg 93%
    05:00 +7°C° 0.1 mm 8 mps 753 mmHg 92%
    06:00 +7°C° 0.1 mm 8 mps 753 mmHg 92%
    07:00 +7°C° 0 mm 8 mps 754 mmHg 90%
    08:00 +9°C° 0 mm 7 mps 754 mmHg 83%
    09:00 +10°C° 0 mm 6 mps 755 mmHg 75%
    10:00 +12°C° 0 mm 5 mps 755 mmHg 67%
    11:00 +12°C° 0 mm 5 mps 755 mmHg 62%
    12:00 +13°C° 0 mm 5 mps 755 mmHg 57%
    13:00 +14°C° 0 mm 5 mps 756 mmHg 51%
    14:00 +13°C° 0 mm 5 mps 756 mmHg 56%
    15:00 +12°C° 0 mm 5 mps 756 mmHg 61%
    16:00 +11°C° 0 mm 4 mps 756 mmHg 65%
    17:00 +9°C° 0 mm 5 mps 756 mmHg 67%
    18:00 +8°C° 0 mm 5 mps 757 mmHg 69%
    19:00 +7°C° 0 mm 5 mps 757 mmHg 72%
    20:00 +7°C° 0 mm 5 mps 757 mmHg 71%
    21:00 +6°C° 0 mm 5 mps 758 mmHg 71%
    22:00 +6°C° 0 mm 5 mps 758 mmHg 71%
    23:00 +6°C° 0 mm 5 mps 758 mmHg 71%

    Tomorrow, 11 December, Tuesday

    Time Temperature Precipitation Wind Pressure Humidity
    00:00 +5°C° 0 mm 5 mps 758 mmHg 71%
    01:00 +5°C° 0 mm 5 mps 759 mmHg 71%
    02:00 +5°C° 0 mm 5 mps 759 mmHg 71%
    03:00 +5°C° 0 mm 5 mps 759 mmHg 71%
    04:00 +5°C° 0 mm 5 mps 759 mmHg 71%
    05:00 +5°C° 0 mm 5 mps 759 mmHg 71%
    06:00 +3°C° 0 mm 5 mps 759 mmHg 72%
    07:00 +4°C° 0 mm 4 mps 759 mmHg 72%
    08:00 +5°C° 0 mm 4 mps 759 mmHg 66%
    09:00 +7°C° 0 mm 5 mps 760 mmHg 60%
    10:00 +8°C° 0 mm 5 mps 760 mmHg 55%
    11:00 +8°C° 0 mm 5 mps 760 mmHg 50%
    12:00 +10°C° 0 mm 4 mps 760 mmHg 46%
    13:00 +10°C° 0 mm 4 mps 760 mmHg 41%
    14:00 +8°C° 0 mm 4 mps 760 mmHg 45%
    15:00 +8°C° 0 mm 4 mps 760 mmHg 48%
    16:00 +7°C° 0 mm 4 mps 760 mmHg 51%
    17:00 +6°C° 0 mm 4 mps 761 mmHg 53%
    18:00 +5°C° 0 mm 4 mps 761 mmHg 54%
    19:00 +4°C° 0 mm 3 mps 761 mmHg 56%
    20:00 +4°C° 0.1 mm 3 mps 761 mmHg 57%
    21:00 +4°C° 0.1 mm 3 mps 762 mmHg 58%
    22:00 +4°C° 0.1 mm 3 mps 762 mmHg 59%
    23:00 +4°C° 0.1 mm 3 mps 762 mmHg 59%

    Day after tomorrow, 12 December, Wednesday

    Time Temperature Precipitation Wind Pressure Humidity
    00:00 +4°C° 0.1 mm 2 mps 762 mmHg 58%
    01:00 +4°C° 0.1 mm 2 mps 762 mmHg 57%
    02:00 +4°C° 0 mm 2 mps 762 mmHg 56%
    03:00 +4°C° 0 mm 2 mps 762 mmHg 55%
    04:00 +4°C° 0 mm 2 mps 763 mmHg 54%
    05:00 +3°C° 0 mm 2 mps 763 mmHg 53%
    06:00 +3°C° 0 mm 2 mps 763 mmHg 51%
    07:00 +2°C° 0 mm 3 mps 764 mmHg 49%
    08:00 +4°C° 0 mm 3 mps 764 mmHg 42%
    09:00 +6°C° 0 mm 2 mps 764 mmHg 36%
    10:00 +8°C° 0 mm 2 mps 764 mmHg 29%
    11:00 +8°C° 0 mm 2 mps 764 mmHg 28%
    12:00 +9°C° 0 mm 2 mps 764 mmHg 28%
    13:00 +9°C° 0 mm 2 mps 763 mmHg 27%
    14:00 +8°C° 0 mm 2 mps 763 mmHg 31%
    15:00 +7°C° 0 mm 2 mps 763 mmHg 35%
    16:00 +6°C° 0 mm 2 mps 763 mmHg 39%
    17:00 +5°C° 0 mm 3 mps 763 mmHg 39%
    18:00 +4°C° 0 mm 3 mps 763 mmHg 38%
    19:00 +4°C° 0 mm 4 mps 764 mmHg 38%
    20:00 +4°C° 0 mm 4 mps 763 mmHg 38%
    21:00 +3°C° 0 mm 5 mps 763 mmHg 37%
    22:00 +3°C° 0 mm 5 mps 763 mmHg 37%
    23:00 +3°C° 0.1 mm 6 mps 763 mmHg 37%

    13 December, Thursday

    Time Temperature Precipitation Wind Pressure Humidity
    00:00 +3°C° 0.1 mm 6 mps 762 mmHg 37%
    01:00 +3°C° 0.1 mm 6 mps 762 mmHg 37%
    02:00 +4°C° 0.5 mm 6 mps 761 mmHg 38%
    03:00 +4°C° 0.5 mm 7 mps 761 mmHg 39%
    04:00 +4°C° 0.5 mm 7 mps 760 mmHg 40%
    05:00 +4°C° 0.3 mm 7 mps 759 mmHg 45%
    06:00 +4°C° 0.3 mm 7 mps 759 mmHg 50%
    07:00 +4°C° 0.3 mm 7 mps 759 mmHg 55%
    08:00 +4°C° 0.2 mm 7 mps 758 mmHg 61%
    09:00 +4°C° 0.2 mm 7 mps 758 mmHg 66%
    10:00 +4°C° 0.2 mm 6 mps 758 mmHg 72%
    11:00 +5°C° 0.2 mm 6 mps 757 mmHg 73%
    12:00 +5°C° 0.2 mm 6 mps 757 mmHg 74%
    13:00 +6°C° 0.2 mm 5 mps 757 mmHg 75%
    14:00 +6°C° 0.2 mm 5 mps 757 mmHg 76%
    15:00 +6°C° 0.2 mm 4 mps 757 mmHg 78%
    16:00 +6°C° 0.2 mm 4 mps 757 mmHg 79%
    17:00 +6°C° 0 mm 4 mps 757 mmHg 79%
    18:00 +7°C° 0 mm 3 mps 758 mmHg 79%
    19:00 +7°C° 0 mm 3 mps 758 mmHg 80%
    20:00 +7°C° 0 mm 3 mps 758 mmHg 82%
    21:00 +7°C° 0 mm 3 mps 759 mmHg 84%
    22:00 +7°C° 0 mm 2 mps 759 mmHg 87%
    23:00 +8°C° 0.1 mm 2 mps 759 mmHg 87%

    14 December, Friday

    Time Temperature Precipitation Wind Pressure Humidity
    00:00 +8°C° 0.1 mm 3 mps 759 mmHg 86%
    01:00 +8°C° 0.1 mm 3 mps 759 mmHg 86%
    02:00 +8°C° 0.1 mm 3 mps 759 mmHg 85%
    03:00 +8°C° 0.1 mm 3 mps 760 mmHg 85%
    04:00 +8°C° 0.1 mm 3 mps 760 mmHg 84%
    05:00 +8°C° 0.2 mm 3 mps 760 mmHg 83%
    06:00 +8°C° 0.2 mm 3 mps 760 mmHg 82%
    07:00 +7°C° 0.2 mm 4 mps 761 mmHg 82%
    08:00 +10°C° 0.1 mm 4 mps 761 mmHg 79%
    09:00 +11°C° 0.1 mm 4 mps 762 mmHg 76%
    10:00 +12°C° 0.1 mm 4 mps 762 mmHg 73%
    11:00 +13°C° 0 mm 4 mps 762 mmHg 70%
    12:00 +14°C° 0 mm 4 mps 762 mmHg 66%
    13:00 +15°C° 0 mm 4 mps 762 mmHg 63%
    14:00 +14°C° 0 mm 4 mps 762 mmHg 67%
    15:00 +13°C° 0 mm 4 mps 762 mmHg 72%
    16:00 +12°C° 0 mm 4 mps 762 mmHg 76%
    17:00 +11°C° 0 mm 4 mps 763 mmHg 76%
    18:00 +11°C° 0 mm 4 mps 763 mmHg 76%
    19:00 +10°C° 0 mm 4 mps 763 mmHg 76%
    20:00 +10°C° 0 mm 4 mps 764 mmHg 75%
    21:00 +8°C° 0 mm 4 mps 764 mmHg 75%
    22:00 +8°C° 0 mm 4 mps 764 mmHg 74%
    23:00 +8°C° 0 mm 4 mps 764 mmHg 74%

    15 December, Saturday

    Time Temperature Precipitation Wind Pressure Humidity
    00:00 +8°C° 0 mm 4 mps 765 mmHg 75%
    01:00 +8°C° 0 mm 4 mps 765 mmHg 75%
    02:00 +8°C° 0 mm 4 mps 765 mmHg 75%
    03:00 +8°C° 0 mm 4 mps 765 mmHg 75%
    04:00 +8°C° 0 mm 4 mps 765 mmHg 75%
    05:00 +8°C° 0.1 mm 4 mps 765 mmHg 76%
    06:00 +8°C° 0.1 mm 4 mps 765 mmHg 76%
    07:00 +8°C° 0.1 mm 4 mps 766 mmHg 76%
    08:00 +10°C° 0.1 mm 4 mps 766 mmHg 73%
    09:00 +11°C° 0.1 mm 4 mps 766 mmHg 70%
    10:00 +13°C° 0.1 mm 4 mps 767 mmHg 67%
    11:00 +14°C° 0 mm 4 mps 766 mmHg 65%
    12:00 +14°C° 0 mm 4 mps 766 mmHg 62%
    13:00 +15°C° 0 mm 4 mps 766 mmHg 60%
    14:00 +14°C° 0 mm 4 mps 766 mmHg 64%
    15:00 +13°C° 0 mm 4 mps 766 mmHg 68%
    16:00 +12°C° 0 mm 4 mps 766 mmHg 72%
    17:00 +12°C° 0 mm 4 mps 766 mmHg 73%
    18:00 +11°C° 0 mm 4 mps 767 mmHg 74%
    19:00 +10°C° 0 mm 3 mps 767 mmHg 75%
    20:00 +10°C° 0.1 mm 3 mps 767 mmHg 75%
    21:00 +10°C° 0.1 mm 3 mps 767 mmHg 75%
    22:00 +9°C° 0.1 mm 3 mps 767 mmHg 75%
    23:00 +9°C° 0.2 mm 3 mps 767 mmHg 75%
    Show more